User: anonymous   Login
Location: Unspecified
(0.0000°N, 0.0000°E)
Time: 09:17:42
(UTC+00:00)
Language:

Nova 3 - Orbit

View from above orbital plane
View from above orbital plane
View from above satellite
View from above satellite

Ground track
Ground track

The orbit data is extracted from the following two-line orbital elements,

1 15362U 84110A   17086.86129686 +.00000046 +00000-0 +89403-4 0  9997
2 15362 090.0438 054.4820 0033779 097.9299 317.7607 13.22728290566329
Epoch (UTC): 27 March 2017 20:40:16
Eccentricity: 0.0033779
inclination: 90.0438°
perigee height: 1149 km
apogee height: 1200 km
right ascension of ascending node: 54.4820°
argument of perigee: 97.9299°
revolutions per day: 13.22728290
mean anomaly at epoch: 317.7607°
orbit number at epoch: 56632

The dashed part of the orbit path shows where the satellite is in the earth's shadow,  

DLR